Location: Moscow
(55.7500°N, 37.5830°E)
Time: 08:48:24
(UTC+03:00)

AO-92 - Visible Passes

Search period start: 10 August 2022 00:00
Search period end: 20 August 2022 00:00
Orbit: 469 x 481 km, 97.4° (Epoch: 09 August)

Date Brightness Start Highest point End Pass type
(mag) Time Alt. Az. Time Alt. Az. Time Alt. Az.
10 Aug ? 21:52:02 17° SE 21:54:32 50° ENE 21:57:59 10° N visible
10 Aug ? 23:26:12 13° SW 23:28:04 19° W 23:30:39 10° NW visible
11 Aug ? 21:24:33 12° ESE 21:27:22 28° ENE 21:30:27 10° N visible
11 Aug ? 22:58:43 20° SSW 23:00:34 33° W 23:03:51 10° NNW visible
12 Aug ? 20:57:56 10° E 21:00:17 17° ENE 21:02:38 10° NNE visible
12 Aug ? 22:31:14 25° S 22:33:10 64° WSW 22:36:43 10° NNW visible
13 Aug ? 22:03:43 22° SSE 22:05:50 66° ENE 22:09:22 10° N visible
13 Aug ? 23:37:54 12° WSW 23:39:30 15° W 23:41:35 10° NW visible
14 Aug ? 21:36:12 16° SE 21:38:35 35° ENE 21:41:50 10° N visible
14 Aug ? 23:10:22 19° SW 23:11:55 26° W 23:14:57 10° NW visible
15 Aug ? 21:08:43 10° ESE 21:11:24 21° ENE 21:14:06 10° NNE visible
15 Aug ? 22:42:50 27° SSW 22:44:25 48° W 22:47:53 10° NNW visible
16 Aug ? 22:15:16 29° SSE 22:16:59 86° ENE 22:20:33 10° NNW visible
16 Aug ? 23:49:30 10° WSW 23:50:48 12° W 23:52:05 10° WNW visible
17 Aug ? 21:47:42 22° SE 21:49:39 44° ENE 21:53:03 10° N visible
17 Aug ? 23:21:52 17° WSW 23:23:07 21° W 23:25:51 10° NW visible
18 Aug ? 21:20:07 14° ESE 21:22:23 25° ENE 21:25:20 10° N visible
18 Aug ? 22:54:16 28° SW 22:55:31 37° W 22:58:51 10° NNW visible
19 Aug ? 20:53:04 10° E 20:55:12 15° ENE 20:57:19 10° NNE visible
19 Aug ? 22:26:40 36° S 22:28:00 73° WSW 22:31:34 10° NNW visible
